TimeEST,TemperatureF,Dew PointF,Humidity,Sea Level PressureIn,VisibilityMPH,Wind Direction,Wind SpeedMPH,Gust SpeedMPH,PrecipitationIn,Events,Conditions,WindDirDegrees,DateUTC
12:54 AM,41.0,33.1,73,30.22,9.0,Calm,Calm,-,N/A,,Overcast,0,2012-11-27 05:54:00
1:54 AM,42.1,33.1,70,30.22,9.0,ENE,4.6,-,N/A,,Overcast,60,2012-11-27 06:54:00
2:54 AM,41.0,33.1,73,30.21,9.0,ENE,4.6,-,N/A,,Overcast,70,2012-11-27 07:54:00
3:54 AM,42.1,35.1,76,30.19,8.0,ENE,6.9,-,0.00,Rain,Light Rain,70,2012-11-27 08:54:00
4:54 AM,39.9,36.0,86,30.21,7.0,Calm,Calm,-,0.01,Rain,Light Rain,0,2012-11-27 09:54:00
5:54 AM,39.9,37.9,93,30.19,5.0,NNE,8.1,17.3,0.03,Rain,Light Rain,30,2012-11-27 10:54:00
6:54 AM,39.2,39.2,100,30.18,4.0,NNE,3.5,-,N/A,Rain,Light Rain,30,2012-11-27 11:54:00
7:32 AM,41.0,39.2,93,30.18,2.5,ENE,8.1,-,0.00,Rain,Light Rain,60,2012-11-27 12:32:00
7:54 AM,41.0,39.0,93,30.18,2.5,NE,8.1,-,0.00,Rain,Light Rain,40,2012-11-27 12:54:00
8:16 AM,39.2,39.2,100,30.18,1.8,ENE,5.8,-,0.00,Rain,Light Rain,60,2012-11-27 13:16:00
8:29 AM,39.2,39.2,100,30.20,2.0,NNE,6.9,-,0.00,Rain,Light Rain,30,2012-11-27 13:29:00
8:43 AM,39.2,39.2,100,30.19,3.0,NE,8.1,-,0.01,Rain,Light Rain,40,2012-11-27 13:43:00
8:50 AM,39.2,39.2,100,30.19,2.5,Variable,4.6,-,0.01,Rain,Light Rain,0,2012-11-27 13:50:00
8:54 AM,39.9,39.0,97,30.19,2.5,NE,8.1,-,0.01,Rain,Light Rain,40,2012-11-27 13:54:00
9:54 AM,39.9,37.9,93,30.20,2.0,North,5.8,-,0.01,Rain,Light Rain,360,2012-11-27 14:54:00
10:54 AM,39.9,39.0,97,30.20,2.0,North,5.8,-,0.04,Rain,Light Rain,360,2012-11-27 15:54:00
11:09 AM,39.2,39.2,100,30.20,1.5,North,4.6,-,0.02,Rain,Light Rain,360,2012-11-27 16:09:00
11:25 AM,39.2,37.4,93,30.19,2.0,North,5.8,-,0.03,Rain,Light Rain,360,2012-11-27 16:25:00
11:54 AM,39.9,37.9,93,30.20,2.5,NNW,8.1,-,0.04,Rain,Light Rain,330,2012-11-27 16:54:00
12:54 PM,39.0,37.0,93,30.18,2.5,North,6.9,-,0.04,Rain,Light Rain,10,2012-11-27 17:54:00
1:18 PM,37.4,35.6,93,30.18,3.0,North,8.1,-,0.01,Rain,Light Rain,360,2012-11-27 18:18:00
1:35 PM,37.4,35.6,93,30.18,5.0,North,5.8,-,0.01,Rain,Light Rain,10,2012-11-27 18:35:00
1:54 PM,37.9,36.0,93,30.19,6.0,North,9.2,-,0.02,Rain,Light Rain,360,2012-11-27 18:54:00
2:54 PM,39.2,37.4,93,30.18,8.0,North,8.1,-,N/A,,Overcast,360,2012-11-27 19:54:00
3:29 PM,39.2,37.4,93,30.18,10.0,North,6.9,-,N/A,,Overcast,360,2012-11-27 20:29:00
3:54 PM,39.9,37.0,89,30.19,10.0,NNW,4.6,-,N/A,,Overcast,340,2012-11-27 20:54:00
4:54 PM,39.0,35.1,86,30.19,10.0,NNW,6.9,-,N/A,,Overcast,340,2012-11-27 21:54:00
5:54 PM,37.9,34.0,86,30.21,8.0,NNW,5.8,-,N/A,,Overcast,340,2012-11-27 22:54:00
7:54 PM,37.9,33.1,83,30.25,10.0,North,5.8,-,N/A,,Overcast,10,2012-11-28 00:54:00
8:43 PM,37.4,32.0,81,30.24,10.0,NW,5.8,-,N/A,,Scattered Clouds,320,2012-11-28 01:43:00
8:54 PM,37.0,32.0,82,30.25,10.0,NW,4.6,-,N/A,,Scattered Clouds,320,2012-11-28 01:54:00
9:54 PM,35.1,32.0,89,30.27,8.0,NW,5.8,-,N/A,,Scattered Clouds,320,2012-11-28 02:54:00
10:54 PM,34.0,32.0,92,30.26,7.0,NW,4.6,-,N/A,,Scattered Clouds,310,2012-11-28 03:54:00
11:54 PM,33.1,30.9,92,30.25,6.0,WNW,3.5,-,N/A,,Scattered Clouds,300,2012-11-28 04:54:00